Weather History for Montague, CA

Change the Weather History Date:

Saturday, March 16, 2013

  Actual Average Record
Temperature  
Mean Temperature 46 °F 43 °F  
Max Temperature 64 °F 57 °F 75 °F (2007)
Min Temperature 28 °F 30 °F 18 °F (2002)
Degree Days  
Heating Degree Days 19 22  
Month to date heating degree days 334 357  
Since 1 July heating degree days 4074 4234  
Cooling Degree Days 0 0  
Month to date cooling degree days 0 0  
Year to date cooling degree days 0 0  
Moisture  
Dew Point 31 °F    
Average Humidity 61    
Maximum Humidity 85    
Minimum Humidity 24    
Precipitation  
Precipitation 0.00 in 0.07 in 0.50 in (1967)
Month to date precipitation 0.12 1.26  
Year to date precipitation 1.16 5.47  
Sea Level Pressure  
Sea Level Pressure 30.17 in    
Wind  
Wind Speed 8 mph (NW)    
Max Wind Speed 30 mph    
Max Gust Speed 36 mph    
T = Trace of Precipitation, MM = Missing Value Source: NWS Daily Summary

Daily Weather History Graph

Daily Weather History Graph

Search for Another Location

Airport:

Trip Planner

Search our weather history database for the weather conditions in past years. The results will help you decide how hot, cold, wet, or windy it might be!

Date:

Astronomy

Mar. 16, 2013 Rise Set
Actual Time 7:19 AM PDT 7:17 PM PDT
Civil Twilight 6:51 AM PDT 7:45 PM PDT
Nautical Twilight 6:19 AM PDT 8:18 PM PDT
Astronomical Twilight 5:46 AM PDT 8:51 PM PDT
Moon 9:48 AM PDT (3/16) No Moon Set
Length of Visible Light 12h 54m
Length of Day
11h 58m
Waxing Crescent, 24% of the Moon is Illuminated
Mar 16
Waxing Crescent
Mar 19
First Quarter
Mar 27
Full
Apr 2
Last Quarter
Apr 10
New

Hourly Weather History & Observations

Time (PDT) Temp. Windchill Dew Point Humidity Pressure Visibility Wind Dir Wind Speed Gust Speed Precip Events Conditions
12:53 AM 43.0 °F 38.8 °F 32.0 °F 65% 30.20 in - NNE 6.9 mph - N/A   Clear
1:53 AM 41.0 °F - 30.0 °F 65% 30.20 in - Calm Calm - N/A   Clear
2:53 AM 35.1 °F 32.2 °F 28.0 °F 76% 30.22 in - East 3.5 mph - N/A   Clear
3:53 AM 33.1 °F 28.7 °F 27.0 °F 78% 30.20 in - NNW 4.6 mph - N/A   Clear
4:53 AM 32.0 °F - 27.0 °F 82% 30.19 in - Calm Calm - N/A   Clear
5:53 AM 28.0 °F 24.2 °F 24.1 °F 85% 30.20 in - NNE 3.5 mph - N/A   Clear
6:53 AM 30.0 °F 24.1 °F 27.0 °F 88% 30.21 in - North 5.8 mph - N/A   Clear
7:53 AM 33.1 °F 28.7 °F 28.9 °F 85% 30.20 in - ENE 4.6 mph - N/A   Clear
8:53 AM 37.0 °F - 33.1 °F 86% 30.20 in - Calm Calm - N/A   Clear
9:53 AM 42.1 °F 40.2 °F 35.1 °F 76% 30.22 in - NNE 3.5 mph - N/A   Clear
10:53 AM 46.9 °F - 37.0 °F 68% 30.20 in - Calm Calm - N/A   Clear
11:53 AM 53.1 °F - 37.0 °F 55% 30.18 in - SW 3.5 mph - N/A   Clear
12:53 PM 55.9 °F - 35.1 °F 45% 30.14 in - SSE 5.8 mph - N/A   Clear
1:53 PM 59.0 °F - 28.9 °F 32% 30.11 in - Variable 4.6 mph - N/A   Scattered Clouds
2:53 PM 64.0 °F - 27.0 °F 25% 30.08 in - WNW 19.6 mph 29.9 mph N/A   Mostly Cloudy
3:53 PM 62.1 °F - 28.9 °F 29% 30.09 in - WNW 18.4 mph 31.1 mph N/A   Partly Cloudy
4:53 PM 60.1 °F - 32.0 °F 35% 30.11 in - WNW 20.7 mph 31.1 mph N/A   Scattered Clouds
5:53 PM 55.0 °F - 33.1 °F 43% 30.14 in - West 21.9 mph 27.6 mph N/A   Overcast
6:53 PM 51.1 °F - 34.0 °F 52% 30.16 in - West 18.4 mph - N/A   Mostly Cloudy
7:53 PM 48.9 °F - 33.1 °F 54% 30.16 in - West 16.1 mph - N/A   Overcast
8:53 PM 46.0 °F 39.9 °F 33.1 °F 61% 30.17 in - West 13.8 mph - N/A   Clear
9:53 PM 45.0 °F 39.7 °F 33.1 °F 63% 30.19 in - West 10.4 mph - N/A   Clear
10:53 PM 43.0 °F 38.2 °F 30.9 °F 62% 30.19 in - West 8.1 mph - N/A   Clear
11:53 PM 42.1 °F - 30.9 °F 65% 30.19 in - Calm Calm - N/A   Scattered Clouds